Hourly Data Report for October 31, 2014

All times are specified in Local Standard Time (LST). Add 1 hour to adjust for Daylight Saving Time where and when it is observed.

CHARLOTTETOWN A
PRINCE EDWARD ISLAND

46°17'21.000" N
63°07'09.000" W
48.50 m
8300301
71706
YYG

Download Data

Hourly Data (October 2014)
Hourly Data Report for October 31, 2014
Temp Definition
°C
Dew Point Temp Definition
°C
Rel Hum Definition
%
Wind Dir Definition
10's deg

Wind Spd Definition
km/h
Visibility Definition
km
Stn Press Definition
kPa
Hmdx Definition


Wind Chill Definition


Weather Definition


TIME
00:00 Legend Double Dagger 7.0 1.7 69 30 11 24.1 100.67     LegendNANA
01:00 Legend Double Dagger 4.7 0.7 75 31 6 24.1 100.70     LegendNANA
02:00 Legend Double Dagger 4.2 -0.2 73 27 8 24.1 100.77     Mainly Clear
03:00 Legend Double Dagger 3.8 -0.6 73 29 9 24.1 100.80     LegendNANA
04:00 Legend Double Dagger 4.3 -0.7 70 28 7 24.1 100.85     LegendNANA
05:00 Legend Double Dagger 3.2 -1.4 72 28 7 24.1 100.91     Mostly Cloudy
06:00 Legend Double Dagger 3.6 -1.2 71 27 11 24.1 100.96     LegendNANA
07:00 Legend Double Dagger 4.0 -0.6 72 28 9 24.1 101.01     LegendNANA
08:00 Legend Double Dagger 4.9 0.7 74 29 10 24.1 101.09     Mainly Clear
09:00 Legend Double Dagger 6.7 1.6 70 30 13 24.1 101.16     LegendNANA
10:00 Legend Double Dagger 7.9 -0.6 55 30 16 24.1 101.20     LegendNANA
11:00 Legend Double Dagger 8.8 -0.2 53 34 14 24.1 101.20     Mainly Clear
12:00 Legend Double Dagger 9.4 -1.6 46 30 20 24.1 101.21     LegendNANA
13:00 Legend Double Dagger 9.1 -2.2 45 28 7 24.1 101.18     LegendNANA
14:00 Legend Double Dagger 9.0 0.0 53 34 10 24.1 101.21     Mainly Clear
15:00 Legend Double Dagger 7.5 -0.2 58 36 10 24.1 101.25     LegendNANA
16:00 Legend Double Dagger 6.6 0.3 64 1 10 24.1 101.33     LegendNANA
17:00 Legend Double Dagger 5.7 -0.2 66 36 7 24.1 101.36     Mostly Cloudy
18:00 Legend Double Dagger 4.7 0.7 75 34 5 24.1 101.42     LegendNANA
19:00 Legend Double Dagger 4.1 0.4 77 1 8 24.1 101.43     LegendNANA
20:00 Legend Double Dagger 3.9 0.1 76 6 7 24.1 101.45     Cloudy
21:00 Legend Double Dagger 4.6 0.2 73 14 5 24.1 101.52     LegendNANA
22:00 Legend Double Dagger 2.7 0.8 87 2 12 24.1 101.49     LegendNANA
23:00 Legend Double Dagger 2.6 0.3 85 2 5 24.1 101.47     Cloudy

Notes on Data Quality.

Legend

  • E = Estimated
  • M = Missing
  • NA = Not Available
  • ‡ = Partner data that is not subject to review by the National Climate Archives
Date modified: